Powrót do katalogu

ARIANE 5 R/B

AktywnyGTO
NORAD 39080·ROCKET BODY·🇫🇷 France

Wystrzelony Feb 7, 2013 z Guiana Space Centre

Loading…

TLE

NieaktualneSource: Space-Track

Epoka: Sep 12, 2026, 03:40 UTC

1 39080U 13006C   26255.15320959  .00000656  00000-0  52117-3 0  9990
2 39080   6.5299 309.4934 7126725  75.2644 348.2133  2.45872580117029

Śledź ARIANE 5 R/B w czasie rzeczywistym z AllMySat

Download on the App Store